FDX853 KDEN-KMKE

Flight info

Callsign FDX853
Flight time 1h 45m
Altitude 35000
Route EEONS8 WYNDM OBH OGECA GOPAC3
Aircraft MD11/H-SDE1E2E3FGHIJ2J3J4J5M1RWXY/LB1D1

Departure

Time 2026-05-05 02:24
Airport Denver International Airport (KDEN)

Arrival

Time 2026-05-05 04:09
Airport General Mitchell International Airport (KMKE)
Time Latitude Longitude Altitude Speed Heading
2026-05-05 01:50 39.87254 -104.66577 5368 ft 0 kts 271°
2026-05-05 02:08 39.87254 -104.66554 5365 ft 4 kts 248°
2026-05-05 02:09 39.87263 -104.66534 5365 ft 4 kts 202°
2026-05-05 02:09 39.87286 -104.66527 5365 ft 4 kts 182°
2026-05-05 02:09 39.87304 -104.66527 5366 ft 1 kts 181°
2026-05-05 02:09 39.87307 -104.66527 5366 ft 0 kts 181°
2026-05-05 02:16 39.87305 -104.66527 5366 ft 1 kts 181°
2026-05-05 02:16 39.87285 -104.66527 5365 ft 5 kts 181°
2026-05-05 02:17 39.87241 -104.66526 5366 ft 7 kts 173°
2026-05-05 02:17 39.87194 -104.66503 5368 ft 7 kts 157°
2026-05-05 02:17 39.87146 -104.66491 5370 ft 7 kts 175°
2026-05-05 02:17 39.87107 -104.66470 5370 ft 2 kts 139°
2026-05-05 02:18 39.87100 -104.66453 5371 ft 1 kts 109°
2026-05-05 02:18 39.87097 -104.66420 5370 ft 5 kts 92°
2026-05-05 02:18 39.87097 -104.66396 5373 ft 0 kts 90°
2026-05-05 02:19 39.87097 -104.66377 5377 ft 7 kts 90°
2026-05-05 02:19 39.87106 -104.66260 5373 ft 14 kts 62°
2026-05-05 02:19 39.87175 -104.66218 5371 ft 9 kts 360°
2026-05-05 02:19 39.87230 -104.66218 5372 ft 6 kts
2026-05-05 02:20 39.87265 -104.66217 5371 ft 4 kts
2026-05-05 02:20 39.87281 -104.66217 5371 ft 2 kts
2026-05-05 02:20 39.87322 -104.66217 5371 ft 9 kts
2026-05-05 02:20 39.87389 -104.66216 5370 ft 10 kts
2026-05-05 02:21 39.87455 -104.66216 5368 ft 9 kts
2026-05-05 02:21 39.87517 -104.66215 5368 ft 9 kts
2026-05-05 02:21 39.87578 -104.66214 5368 ft 9 kts
2026-05-05 02:21 39.87626 -104.66213 5367 ft 0 kts
2026-05-05 02:22 39.87627 -104.66213 5367 ft 0 kts
2026-05-05 02:22 39.87651 -104.66212 5368 ft 7 kts
2026-05-05 02:22 39.87718 -104.66210 5368 ft 10 kts
2026-05-05 02:23 39.87749 -104.66195 5366 ft 1 kts 42°
2026-05-05 02:23 39.87753 -104.66186 5364 ft 3 kts 58°
2026-05-05 02:23 39.87756 -104.66128 5366 ft 15 kts 89°
2026-05-05 02:23 39.87751 -104.65678 5360 ft 86 kts 90°
2026-05-05 02:24 39.87745 -104.64615 5348 ft 147 kts 90°
2026-05-05 02:24 39.87751 -104.63117 5540 ft 173 kts 89°
2026-05-05 02:24 39.87756 -104.61489 6050 ft 185 kts 79°
2026-05-05 02:24 39.88067 -104.59855 6710 ft 186 kts 68°
2026-05-05 02:25 39.88462 -104.58212 7292 ft 191 kts 70°
2026-05-05 02:25 39.88828 -104.56560 7962 ft 190 kts 71°
2026-05-05 02:25 39.89179 -104.54874 8543 ft 198 kts 72°
2026-05-05 02:25 39.89542 -104.53040 8932 ft 218 kts 74°
2026-05-05 02:26 39.89909 -104.51077 9332 ft 233 kts 75°
2026-05-05 02:26 39.90287 -104.48962 9731 ft 244 kts 76°
2026-05-05 02:26 39.90670 -104.46742 9933 ft 261 kts 77°
2026-05-05 02:26 39.91074 -104.44342 9968 ft 282 kts 77°
2026-05-05 02:27 39.91507 -104.41763 9965 ft 301 kts 76°
2026-05-05 02:27 39.92046 -104.39048 10000 ft 315 kts 74°
2026-05-05 02:27 39.92643 -104.36279 10488 ft 321 kts 73°
2026-05-05 02:27 39.93275 -104.33386 10794 ft 342 kts 74°
2026-05-05 02:28 39.93932 -104.30299 11034 ft 365 kts 75°
2026-05-05 02:28 39.94625 -104.27038 11427 ft 379 kts 74°
2026-05-05 02:28 39.95319 -104.23708 11962 ft 387 kts 75°
2026-05-05 02:28 39.96043 -104.20356 11897 ft 384 kts 74°
2026-05-05 02:29 39.96785 -104.17024 11862 ft 381 kts 75°
2026-05-05 02:29 39.97390 -104.13658 11858 ft 382 kts 79°
2026-05-05 02:29 39.97819 -104.10283 12649 ft 382 kts 82°
2026-05-05 02:29 39.98202 -104.06826 13370 ft 388 kts 83°
2026-05-05 02:30 39.98573 -104.03316 14032 ft 395 kts 83°
2026-05-05 02:30 39.98947 -103.99746 14659 ft 400 kts 83°
2026-05-05 02:30 39.99331 -103.96115 15264 ft 406 kts 82°
2026-05-05 02:30 39.99753 -103.92441 15856 ft 412 kts 80°
2026-05-05 02:31 40.00274 -103.88745 16442 ft 418 kts 78°
2026-05-05 02:31 40.00853 -103.85005 17047 ft 423 kts 78°
2026-05-05 02:31 40.01459 -103.81223 17599 ft 429 kts 77°
2026-05-05 02:31 40.02081 -103.77380 18137 ft 435 kts 77°
2026-05-05 02:32 40.02710 -103.73552 18621 ft 439 kts 77°
2026-05-05 02:32 40.03356 -103.69642 19134 ft 443 kts 77°
2026-05-05 02:32 40.04008 -103.65697 19654 ft 446 kts 77°
2026-05-05 02:32 40.04661 -103.61723 20168 ft 449 kts 77°
2026-05-05 02:33 40.05316 -103.57731 20674 ft 452 kts 77°
2026-05-05 02:33 40.05973 -103.53704 21187 ft 455 kts 77°
2026-05-05 02:33 40.06634 -103.49649 21707 ft 459 kts 77°
2026-05-05 02:33 40.07295 -103.45573 22366 ft 459 kts 77°
2026-05-05 02:34 40.07958 -103.41482 23002 ft 462 kts 77°
2026-05-05 02:34 40.08624 -103.37358 23546 ft 465 kts 77°
2026-05-05 02:34 40.09292 -103.33217 24015 ft 468 kts 77°
2026-05-05 02:34 40.09964 -103.29037 24472 ft 472 kts 77°
2026-05-05 02:35 40.10640 -103.24824 24929 ft 476 kts 77°
2026-05-05 02:35 40.11319 -103.20581 25390 ft 480 kts 77°
2026-05-05 02:35 40.12004 -103.16294 25842 ft 484 kts 77°
2026-05-05 02:35 40.12692 -103.11971 26209 ft 487 kts 77°
2026-05-05 02:36 40.13383 -103.07623 26689 ft 491 kts 77°
2026-05-05 02:36 40.14078 -103.03233 27125 ft 495 kts 77°
2026-05-05 02:36 40.14775 -102.98823 27541 ft 499 kts 77°
2026-05-05 02:36 40.15477 -102.94363 27969 ft 503 kts 77°
2026-05-05 02:37 40.16183 -102.89871 28394 ft 506 kts 77°
2026-05-05 02:37 40.16893 -102.85342 28812 ft 510 kts 77°
2026-05-05 02:37 40.17606 -102.80782 29226 ft 514 kts 77°
2026-05-05 02:37 40.18324 -102.76176 29642 ft 518 kts 77°
2026-05-05 02:38 40.19038 -102.71567 30100 ft 518 kts 77°
2026-05-05 02:38 40.19742 -102.66925 30408 ft 522 kts 77°
2026-05-05 02:38 40.20448 -102.62237 30690 ft 526 kts 77°
2026-05-05 02:38 40.21153 -102.57581 30964 ft 530 kts 76°
2026-05-05 02:39 40.21876 -102.52833 31241 ft 534 kts 76°
2026-05-05 02:39 40.22615 -102.47993 31522 ft 538 kts 76°
2026-05-05 02:39 40.23352 -102.43168 31796 ft 542 kts 76°
2026-05-05 02:39 40.24091 -102.38325 32092 ft 545 kts 75°
2026-05-05 02:40 40.24831 -102.33457 32400 ft 547 kts 75°
2026-05-05 02:40 40.25572 -102.28565 32727 ft 549 kts 75°
2026-05-05 02:40 40.26315 -102.23646 33053 ft 551 kts 75°
2026-05-05 02:40 40.27046 -102.18789 33381 ft 552 kts 75°
2026-05-05 02:41 40.27798 -102.13783 33651 ft 555 kts 75°
2026-05-05 02:41 40.28541 -102.08818 33892 ft 557 kts 74°
2026-05-05 02:41 40.29277 -102.03886 34128 ft 559 kts 74°
2026-05-05 02:41 40.30018 -101.98892 34458 ft 558 kts 74°
2026-05-05 02:42 40.30757 -101.93901 34740 ft 559 kts 74°
2026-05-05 02:42 40.32247 -101.83816 34846 ft 566 kts 74°
2026-05-05 02:43 40.33732 -101.73677 34868 ft 566 kts 74°
2026-05-05 02:43 40.35201 -101.63537 34877 ft 565 kts 75°
2026-05-05 02:44 40.36625 -101.53438 34873 ft 563 kts 75°
2026-05-05 02:44 40.38281 -101.43523 34864 ft 555 kts 66°
2026-05-05 02:45 40.41161 -101.34222 34856 ft 547 kts 58°
2026-05-05 02:45 40.44412 -101.25205 34847 ft 546 kts 57°
2026-05-05 02:46 40.47579 -101.16154 34833 ft 546 kts 59°
2026-05-05 02:46 40.50659 -101.07028 34831 ft 546 kts 59°
2026-05-05 02:47 40.53709 -100.97885 34832 ft 546 kts 59°
2026-05-05 02:47 40.56759 -100.88728 34831 ft 546 kts 59°
2026-05-05 02:48 40.59802 -100.79576 34836 ft 547 kts 59°
2026-05-05 02:48 40.62821 -100.70471 34838 ft 546 kts 59°
2026-05-05 02:49 40.65852 -100.61301 34838 ft 545 kts 60°
2026-05-05 02:49 40.68866 -100.52145 34841 ft 544 kts 60°
2026-05-05 02:50 40.71857 -100.43006 34843 ft 543 kts 60°
2026-05-05 02:50 40.74822 -100.33836 34840 ft 543 kts 60°
2026-05-05 02:51 40.77794 -100.24673 34838 ft 543 kts 60°
2026-05-05 02:51 40.80771 -100.15513 34861 ft 542 kts 60°
2026-05-05 02:52 40.83732 -100.06373 34880 ft 541 kts 60°
2026-05-05 02:52 40.86689 -99.97220 34896 ft 542 kts 60°
2026-05-05 02:53 40.89619 -99.88115 34903 ft 542 kts 60°
2026-05-05 02:53 40.92556 -99.78955 34912 ft 541 kts 60°
2026-05-05 02:54 40.95481 -99.69801 34902 ft 539 kts 61°
2026-05-05 02:54 40.98393 -99.60662 34885 ft 539 kts 61°
2026-05-05 02:55 41.01296 -99.51519 34876 ft 539 kts 61°
2026-05-05 02:55 41.04185 -99.42365 34859 ft 539 kts 62°
2026-05-05 02:56 41.07049 -99.33165 34862 ft 539 kts 62°
2026-05-05 02:56 41.09920 -99.23977 34862 ft 540 kts 62°
2026-05-05 02:57 41.12797 -99.14784 34871 ft 540 kts 62°
2026-05-05 02:57 41.15653 -99.05637 34877 ft 539 kts 62°
2026-05-05 02:58 41.18519 -98.96426 34879 ft 539 kts 62°
2026-05-05 02:58 41.21374 -98.87214 34875 ft 539 kts 62°
2026-05-05 02:59 41.24207 -98.78049 34880 ft 541 kts 62°
2026-05-05 02:59 41.27059 -98.68785 34879 ft 541 kts 62°
2026-05-05 03:00 41.29881 -98.59581 34878 ft 541 kts 62°
2026-05-05 03:00 41.32720 -98.50292 34884 ft 542 kts 62°
2026-05-05 03:01 41.35545 -98.41000 34879 ft 542 kts 63°
2026-05-05 03:01 41.38338 -98.31680 34891 ft 542 kts 63°
2026-05-05 03:02 41.41074 -98.22330 34884 ft 543 kts 65°
2026-05-05 03:02 41.43399 -98.12706 34884 ft 546 kts 68°
2026-05-05 03:03 41.45559 -98.03010 34886 ft 546 kts 69°
2026-05-05 03:03 41.47737 -97.93303 34893 ft 546 kts 68°
2026-05-05 03:04 41.49923 -97.83672 34898 ft 546 kts 68°
2026-05-05 03:04 41.52126 -97.73970 34904 ft 547 kts 69°
2026-05-05 03:05 41.54324 -97.64237 34889 ft 548 kts 69°
2026-05-05 03:05 41.56143 -97.56141 34892 ft 548 kts 69°
2026-05-05 03:06 41.58326 -97.46382 34888 ft 548 kts 69°
2026-05-05 03:06 41.60502 -97.36615 34888 ft 548 kts 69°
2026-05-05 03:07 41.62668 -97.26849 34884 ft 548 kts 69°
2026-05-05 03:07 41.64821 -97.17072 34887 ft 548 kts 70°
2026-05-05 03:08 41.66937 -97.07278 34884 ft 548 kts 70°
2026-05-05 03:08 41.69057 -96.97492 34878 ft 548 kts 69°
2026-05-05 03:09 41.71190 -96.87689 34879 ft 548 kts 69°
2026-05-05 03:09 41.73319 -96.77879 34875 ft 549 kts 69°
2026-05-05 03:10 41.75438 -96.68062 34872 ft 549 kts 69°
2026-05-05 03:10 41.77550 -96.58233 34870 ft 549 kts 70°
2026-05-05 03:11 41.79651 -96.48401 34870 ft 549 kts 70°
2026-05-05 03:11 41.81740 -96.38585 34883 ft 546 kts 70°
2026-05-05 03:12 41.83810 -96.28806 34877 ft 545 kts 70°
2026-05-05 03:12 41.85860 -96.19086 34878 ft 545 kts 70°
2026-05-05 03:13 41.87911 -96.09286 34874 ft 545 kts 71°
2026-05-05 03:13 41.89918 -95.99488 34869 ft 544 kts 70°
2026-05-05 03:14 41.91931 -95.89713 34864 ft 543 kts 70°
2026-05-05 03:14 41.93939 -95.80003 34859 ft 543 kts 70°
2026-05-05 03:15 41.95956 -95.70220 34861 ft 543 kts 70°
2026-05-05 03:15 41.97960 -95.60442 34881 ft 542 kts 70°
2026-05-05 03:16 41.99954 -95.50666 34890 ft 542 kts 70°
2026-05-05 03:16 42.01938 -95.40891 34890 ft 542 kts 71°
2026-05-05 03:17 42.03913 -95.31118 34897 ft 542 kts 71°
2026-05-05 03:17 42.05878 -95.21341 34873 ft 541 kts 71°
2026-05-05 03:18 42.07832 -95.11570 34876 ft 541 kts 71°
2026-05-05 03:18 42.09778 -95.01768 34851 ft 543 kts 71°
2026-05-05 03:19 42.12640 -94.87048 34845 ft 544 kts 71°
2026-05-05 03:19 42.14570 -94.77186 34842 ft 544 kts 71°
2026-05-05 03:20 42.16501 -94.67323 34856 ft 544 kts 71°
2026-05-05 03:20 42.18425 -94.57447 34856 ft 544 kts 71°
2026-05-05 03:21 42.20335 -94.47584 34853 ft 543 kts 71°
2026-05-05 03:21 42.22236 -94.37723 34851 ft 543 kts 71°
2026-05-05 03:22 42.24128 -94.27855 34854 ft 543 kts 71°
2026-05-05 03:22 42.26011 -94.17982 34856 ft 543 kts 71°
2026-05-05 03:23 42.27883 -94.08122 34835 ft 542 kts 71°
2026-05-05 03:23 42.29742 -93.98273 34830 ft 542 kts 72°
2026-05-05 03:24 42.31574 -93.88394 34834 ft 542 kts 72°
2026-05-05 03:24 42.33377 -93.78574 34825 ft 541 kts 72°
2026-05-05 03:25 42.35201 -93.68707 34822 ft 540 kts 72°
2026-05-05 03:25 42.37032 -93.58823 34817 ft 542 kts 72°
2026-05-05 03:26 42.38855 -93.48923 34829 ft 542 kts 72°
2026-05-05 03:26 42.40656 -93.39083 34852 ft 542 kts 72°
2026-05-05 03:27 42.42458 -93.29182 34854 ft 542 kts 72°
2026-05-05 03:27 42.44252 -93.19273 34852 ft 542 kts 72°
2026-05-05 03:28 42.46040 -93.09346 34844 ft 542 kts 72°
2026-05-05 03:28 42.47821 -92.99406 34827 ft 542 kts 72°
2026-05-05 03:29 42.49589 -92.89483 34790 ft 542 kts 72°
2026-05-05 03:29 42.51316 -92.79609 34764 ft 542 kts 73°
2026-05-05 03:30 42.53025 -92.69724 34769 ft 542 kts 73°
2026-05-05 03:30 42.54758 -92.59782 34781 ft 542 kts 73°
2026-05-05 03:31 42.56492 -92.49839 34786 ft 542 kts 73°
2026-05-05 03:31 42.58218 -92.39891 34787 ft 542 kts 73°
2026-05-05 03:32 42.59937 -92.29926 34792 ft 543 kts 73°
2026-05-05 03:32 42.61648 -92.19944 34774 ft 542 kts 74°
2026-05-05 03:33 42.63347 -92.09976 34783 ft 542 kts 74°
2026-05-05 03:33 42.64671 -91.99880 34786 ft 545 kts 82°
2026-05-05 03:34 42.65217 -91.89596 34773 ft 546 kts 85°
2026-05-05 03:34 42.65630 -91.79323 34727 ft 542 kts 85°
2026-05-05 03:35 42.65855 -91.74295 34635 ft 523 kts 85°
2026-05-05 03:35 42.66088 -91.69409 34017 ft 517 kts 85°
2026-05-05 03:35 42.66331 -91.64537 33048 ft 517 kts 85°
2026-05-05 03:35 42.66579 -91.59655 32008 ft 518 kts 85°
2026-05-05 03:36 42.66825 -91.54802 31001 ft 519 kts 85°
2026-05-05 03:36 42.67071 -91.49869 29991 ft 520 kts 85°
2026-05-05 03:36 42.67312 -91.44969 28844 ft 520 kts 85°
2026-05-05 03:36 42.67551 -91.40060 27581 ft 522 kts 86°
2026-05-05 03:37 42.67789 -91.35092 26279 ft 526 kts 86°
2026-05-05 03:37 42.68023 -91.30162 25292 ft 523 kts 86°
2026-05-05 03:37 42.68253 -91.25254 24399 ft 518 kts 86°
2026-05-05 03:37 42.68479 -91.20397 23550 ft 513 kts 86°
2026-05-05 03:38 42.68702 -91.15584 22637 ft 507 kts 87°
2026-05-05 03:38 42.68916 -91.10879 21778 ft 501 kts 86°
2026-05-05 03:38 42.69128 -91.06190 20931 ft 494 kts 86°
2026-05-05 03:38 42.69336 -91.01560 20106 ft 488 kts 86°
2026-05-05 03:39 42.69539 -90.96992 19327 ft 482 kts 86°
2026-05-05 03:39 42.69736 -90.92476 18572 ft 476 kts 86°
2026-05-05 03:39 42.69916 -90.88000 17802 ft 470 kts 86°
2026-05-05 03:39 42.70088 -90.83594 16996 ft 464 kts 86°
2026-05-05 03:40 42.70261 -90.79244 16232 ft 458 kts 87°
2026-05-05 03:40 42.70436 -90.74943 15463 ft 452 kts 87°
2026-05-05 03:40 42.70610 -90.70720 14848 ft 443 kts 87°
2026-05-05 03:40 42.70783 -90.66573 14275 ft 435 kts 87°
2026-05-05 03:41 42.70953 -90.62461 13920 ft 435 kts 87°
2026-05-05 03:41 42.71122 -90.58364 13568 ft 433 kts 88°
2026-05-05 03:41 42.71288 -90.54293 13196 ft 430 kts 88°
2026-05-05 03:41 42.71452 -90.50240 13083 ft 429 kts 88°
2026-05-05 03:42 42.71614 -90.46185 13052 ft 429 kts 88°
2026-05-05 03:42 42.71774 -90.42140 13051 ft 429 kts 88°
2026-05-05 03:42 42.71933 -90.38084 13057 ft 429 kts 88°
2026-05-05 03:42 42.72091 -90.34037 13052 ft 430 kts 88°
2026-05-05 03:43 42.72248 -90.29964 13045 ft 430 kts 88°
2026-05-05 03:43 42.72404 -90.25905 13038 ft 431 kts 88°
2026-05-05 03:43 42.72558 -90.21834 13031 ft 431 kts 88°
2026-05-05 03:43 42.72702 -90.17755 13023 ft 430 kts 88°
2026-05-05 03:44 42.72839 -90.13752 13010 ft 430 kts 88°
2026-05-05 03:44 42.72978 -90.09677 13001 ft 430 kts 88°
2026-05-05 03:44 42.73119 -90.05610 12994 ft 431 kts 88°
2026-05-05 03:44 42.73262 -90.01538 12984 ft 431 kts 88°
2026-05-05 03:45 42.73403 -89.97529 12975 ft 430 kts 88°
2026-05-05 03:45 42.73546 -89.93464 12986 ft 430 kts 88°
2026-05-05 03:45 42.73687 -89.89399 12992 ft 429 kts 88°
2026-05-05 03:45 42.73827 -89.85343 12996 ft 429 kts 88°
2026-05-05 03:46 42.73966 -89.81264 13002 ft 429 kts 88°
2026-05-05 03:46 42.74103 -89.77212 13003 ft 429 kts 88°
2026-05-05 03:46 42.74239 -89.73150 13008 ft 429 kts 88°
2026-05-05 03:46 42.74371 -89.69145 13008 ft 429 kts 88°
2026-05-05 03:47 42.74504 -89.65089 13012 ft 429 kts 88°
2026-05-05 03:47 42.74635 -89.61028 13013 ft 430 kts 88°
2026-05-05 03:47 42.74765 -89.56967 13013 ft 430 kts 88°
2026-05-05 03:47 42.74893 -89.52902 13011 ft 430 kts 88°
2026-05-05 03:48 42.75020 -89.48851 13007 ft 429 kts 88°
2026-05-05 03:48 42.75145 -89.44784 13003 ft 429 kts 88°
2026-05-05 03:48 42.75269 -89.40734 13000 ft 429 kts 89°
2026-05-05 03:48 42.75392 -89.36668 12993 ft 430 kts 89°
2026-05-05 03:49 42.75513 -89.32604 12987 ft 430 kts 89°
2026-05-05 03:49 42.75632 -89.28569 12983 ft 430 kts 89°
2026-05-05 03:49 42.75751 -89.24492 12977 ft 430 kts 89°
2026-05-05 03:49 42.75828 -89.21796 12971 ft 429 kts 89°
2026-05-05 03:50 42.75936 -89.17747 12966 ft 426 kts 89°
2026-05-05 03:50 42.76018 -89.13719 12962 ft 425 kts 90°
2026-05-05 03:50 42.76092 -89.09690 12963 ft 425 kts 90°
2026-05-05 03:50 42.76167 -89.05672 12994 ft 425 kts 90°
2026-05-05 03:51 42.76257 -89.01648 12994 ft 426 kts 89°
2026-05-05 03:51 42.76386 -88.97619 12994 ft 426 kts 88°
2026-05-05 03:51 42.76536 -88.93602 12992 ft 426 kts 88°
2026-05-05 03:51 42.76694 -88.89578 12986 ft 425 kts 88°
2026-05-05 03:52 42.76840 -88.85543 12983 ft 426 kts 89°
2026-05-05 03:52 42.76957 -88.81520 12979 ft 425 kts 89°
2026-05-05 03:52 42.77058 -88.77505 12970 ft 424 kts 89°
2026-05-05 03:52 42.77153 -88.73493 12966 ft 424 kts 89°
2026-05-05 03:53 42.77247 -88.69479 12959 ft 424 kts 89°
2026-05-05 03:53 42.77513 -88.65585 12938 ft 409 kts 81°
2026-05-05 03:53 42.78045 -88.61821 12778 ft 391 kts 77°
2026-05-05 03:53 42.78654 -88.58348 12655 ft 376 kts 75°
2026-05-05 03:54 42.79284 -88.54955 12517 ft 362 kts 75°
2026-05-05 03:54 42.79886 -88.51686 12289 ft 352 kts 76°
2026-05-05 03:54 42.80469 -88.48457 11857 ft 350 kts 76°
2026-05-05 03:54 42.81040 -88.45237 11424 ft 347 kts 76°
2026-05-05 03:55 42.81632 -88.42070 10994 ft 345 kts 73°
2026-05-05 03:55 42.82325 -88.38949 10559 ft 343 kts 72°
2026-05-05 03:55 42.82732 -88.35773 10101 ft 340 kts 94°
2026-05-05 03:55 42.82276 -88.32700 9790 ft 324 kts 120°
2026-05-05 03:56 42.81074 -88.30225 9391 ft 307 kts 143°
2026-05-05 03:56 42.79463 -88.28398 8938 ft 297 kts 153°
2026-05-05 03:56 42.77769 -88.26815 8529 ft 294 kts 154°
2026-05-05 03:56 42.76069 -88.25284 8149 ft 292 kts 155°
2026-05-05 03:57 42.74376 -88.23782 7742 ft 290 kts 155°
2026-05-05 03:57 42.72586 -88.22701 7315 ft 273 kts 177°
2026-05-05 03:57 42.70731 -88.22527 6865 ft 264 kts 188°
2026-05-05 03:57 42.68903 -88.22617 6455 ft 263 kts 189°
2026-05-05 03:58 42.67077 -88.22748 6084 ft 262 kts 189°
2026-05-05 03:58 42.65255 -88.22901 5653 ft 262 kts 189°
2026-05-05 03:58 42.63436 -88.23077 5221 ft 263 kts 190°
2026-05-05 03:58 42.61614 -88.23262 4818 ft 262 kts 190°
2026-05-05 03:59 42.59794 -88.23452 4385 ft 263 kts 190°
2026-05-05 03:59 42.57981 -88.23633 3998 ft 261 kts 186°
2026-05-05 03:59 42.56198 -88.23136 3640 ft 270 kts 156°
2026-05-05 03:59 42.54756 -88.21499 3675 ft 283 kts 128°
2026-05-05 04:00 42.53954 -88.19080 3664 ft 284 kts 99°
2026-05-05 04:00 42.54017 -88.16441 3659 ft 280 kts 70°
2026-05-05 04:00 42.54813 -88.14065 3681 ft 278 kts 60°
2026-05-05 04:00 42.55615 -88.11668 3658 ft 279 kts 63°
2026-05-05 04:01 42.56363 -88.09240 3666 ft 280 kts 64°
2026-05-05 04:01 42.57107 -88.06812 3689 ft 278 kts 64°
2026-05-05 04:01 42.57919 -88.04448 3677 ft 276 kts 58°
2026-05-05 04:01 42.58743 -88.02092 3675 ft 277 kts 64°
2026-05-05 04:02 42.59561 -87.99734 3667 ft 273 kts 52°
2026-05-05 04:02 42.60826 -87.97954 3686 ft 247 kts 33°
2026-05-05 04:02 42.62087 -87.96614 3636 ft 215 kts 31°
2026-05-05 04:02 42.63242 -87.95422 3666 ft 205 kts 28°
2026-05-05 04:03 42.64510 -87.94768 3662 ft 191 kts
2026-05-05 04:03 42.65833 -87.94496 3695 ft 193 kts
2026-05-05 04:03 42.67137 -87.94215 3647 ft 189 kts
2026-05-05 04:03 42.68427 -87.93975 3221 ft 185 kts 359°
2026-05-05 04:04 42.69706 -87.93758 2869 ft 185 kts 360°
2026-05-05 04:04 42.70958 -87.93541 2679 ft 178 kts 359°
2026-05-05 04:04 42.72195 -87.93331 2671 ft 179 kts 359°
2026-05-05 04:04 42.73446 -87.93120 2647 ft 181 kts 359°
2026-05-05 04:05 42.74698 -87.92908 2670 ft 182 kts 359°
2026-05-05 04:05 42.75974 -87.92691 3037 ft 183 kts 359°
2026-05-05 04:05 42.77242 -87.92474 3291 ft 185 kts 359°
2026-05-05 04:05 42.78515 -87.92256 3344 ft 178 kts 359°
2026-05-05 04:06 42.79691 -87.92046 3361 ft 167 kts 359°
2026-05-05 04:06 42.80828 -87.91854 3151 ft 165 kts 358°
2026-05-05 04:06 42.81958 -87.91662 2937 ft 163 kts 358°
2026-05-05 04:06 42.83071 -87.91472 2718 ft 158 kts 358°
2026-05-05 04:07 42.84146 -87.91287 2487 ft 154 kts 358°
2026-05-05 04:07 42.85213 -87.91109 2269 ft 155 kts 359°
2026-05-05 04:07 42.86287 -87.90927 2099 ft 156 kts 359°
2026-05-05 04:07 42.87353 -87.90742 1882 ft 153 kts 358°
2026-05-05 04:08 42.88404 -87.90562 1674 ft 152 kts 357°
2026-05-05 04:08 42.89462 -87.90388 1464 ft 156 kts
2026-05-05 04:08 42.90553 -87.90197 1261 ft 162 kts
2026-05-05 04:08 42.91664 -87.90001 1064 ft 155 kts
2026-05-05 04:09 42.92713 -87.89812 832 ft 153 kts
2026-05-05 04:09 42.93722 -87.89686 690 ft 121 kts
2026-05-05 04:09 42.94251 -87.89560 691 ft 48 kts
2026-05-05 04:09 42.94550 -87.89516 691 ft 38 kts
2026-05-05 04:10 42.94786 -87.89548 691 ft 28 kts 338°
2026-05-05 04:10 42.94857 -87.89590 689 ft 1 kts 331°
2026-05-05 04:10 42.94858 -87.89590 689 ft 0 kts 331°
2026-05-05 04:11 42.94860 -87.89591 690 ft 2 kts 335°
2026-05-05 04:11 42.94885 -87.89598 691 ft 5 kts 356°
2026-05-05 04:11 42.94939 -87.89595 691 ft 8 kts 360°
2026-05-05 04:12 42.94962 -87.89615 691 ft 4 kts 308°
2026-05-05 04:12 42.94971 -87.89665 686 ft 6 kts 274°
2026-05-05 04:12 42.94962 -87.89690 686 ft 3 kts 238°
2026-05-05 04:12 42.94936 -87.89707 686 ft 5 kts 189°
2026-05-05 04:13 42.94883 -87.89709 691 ft 10 kts 182°
2026-05-05 04:13 42.94800 -87.89701 691 ft 11 kts 153°
2026-05-05 04:13 42.94727 -87.89635 688 ft 14 kts 170°
2026-05-05 04:13 42.94612 -87.89649 691 ft 19 kts 187°
2026-05-05 04:14 42.94549 -87.89661 691 ft 1 kts 199°
2026-05-05 04:14 42.94544 -87.89673 690 ft 3 kts 237°
2026-05-05 04:14 42.94520 -87.89744 691 ft 13 kts 250°
2026-05-05 04:14 42.94485 -87.89883 690 ft 16 kts 251°